Simultaneous Nadir Overpasses (SNOs) Predictions

Prediction of SNOs between METOP-B and NOAA-19 Satellite Orbit:

Table of predicted SNOs for the next 14.0 days since TLE Epoch: 10/2/2021
Index Date (METOP-B) Time (METOP-B) Lat,Lon (METOP-B) SZA (METOP-B ) Date (NOAA-19) Time (NOAA-19) Lat,Lon (NOAA-19) SZA (NOAA-19 ) Distance(km) Time Diff (sec)
1 10/11/2021 17:45:48 80.64, -56.15 89.45 10/11/2021 17:44:45 80.66, -56.08 89.44 1.82 63
2 10/11/2021 18:36:29 -80.66, 111.37 90.51 10/11/2021 18:35:39 -80.65, 111.48 90.53 2.25 50
3 10/11/2021 19:27:10 80.63, -81.64 89.46 10/11/2021 19:26:45 80.65, -81.50 89.48 3.22 25
4 10/11/2021 20:17:51 -80.65, 85.89 90.51 10/11/2021 20:17:39 -80.64, 86.06 90.50 3.13 12
5 10/11/2021 21:08:31 80.65,-106.78 89.51 10/11/2021 21:08:45 80.65,-106.92 89.51 2.51 14
6 10/11/2021 21:59:13 -80.64, 60.40 90.50 10/11/2021 21:59:40 -80.65, 60.28 90.49 2.70 27
7 10/11/2021 22:49:53 80.64,-132.27 89.52 10/11/2021 22:50:45 80.65,-132.34 89.54 1.71 52



Historial Predications of SNOs between METOP-B and NOAA-19
